User: anonymous   Login
Location: Unspecified
(0.0000°N, 0.0000°E)
Time: 01:47:36
(UTC+02:00)
Language:

Sapphire - Orbit

View from above orbital plane
View from above orbital plane
View from above satellite
View from above satellite

Ground track
Ground track

The orbit data is extracted from the following two-line orbital elements,

1 26932U 01043D   16274.49960029 -.00000019  00000-0  24533-4 0  9991
2 26932  67.0571  43.1790 0004755 248.1867 111.8728 14.30225170783237
Epoch (UTC): 30 September 2016 11:59:25
Eccentricity: 0.0004755
inclination: 67.0571°
perigee height: 787 km
apogee height: 794 km
right ascension of ascending node: 43.1790°
argument of perigee: 248.1867°
revolutions per day: 14.30225170
mean anomaly at epoch: 111.8728°
orbit number at epoch: 78323

The dashed part of the orbit path shows where the satellite is in the earth's shadow,  

DLR